Year,Month,Day,Hour,Minute,Value (Times are PST for temperature in C)
2009,07,25,00,00,15.30
2009,07,25,00,01,15.40
2009,07,25,00,02,15.50
2009,07,25,00,03,15.50
2009,07,25,00,04,15.60
2009,07,25,00,05,15.70
2009,07,25,00,06,15.80
2009,07,25,00,07,15.90
2009,07,25,00,08,16.00
2009,07,25,00,09,16.10
2009,07,25,00,10,16.10
2009,07,25,00,11,16.20
2009,07,25,00,12,16.20
2009,07,25,00,13,16.30
2009,07,25,00,14,16.30
2009,07,25,00,15,16.30
2009,07,25,00,16,16.30
2009,07,25,00,17,16.40
2009,07,25,00,18,16.40
2009,07,25,00,19,16.40
2009,07,25,00,20,16.40
2009,07,25,00,21,16.40
2009,07,25,00,22,16.50
2009,07,25,00,23,16.60
2009,07,25,00,24,16.60
2009,07,25,00,25,16.70
2009,07,25,00,26,16.70
2009,07,25,00,27,16.70
2009,07,25,00,28,16.70
2009,07,25,00,29,16.80
2009,07,25,00,30,16.80
2009,07,25,00,31,16.80
2009,07,25,00,32,16.80
2009,07,25,00,33,16.80
2009,07,25,00,34,16.80
2009,07,25,00,35,16.80
2009,07,25,00,36,16.80
2009,07,25,00,37,16.70
2009,07,25,00,38,16.70
2009,07,25,00,39,16.70
2009,07,25,00,40,16.70
2009,07,25,00,41,16.60
2009,07,25,00,42,16.50
2009,07,25,00,43,16.40
2009,07,25,00,44,16.30
2009,07,25,00,45,16.20
2009,07,25,00,46,16.20
2009,07,25,00,47,16.10
2009,07,25,00,48,16.10
2009,07,25,00,49,16.10
2009,07,25,00,50,16.00
2009,07,25,00,51,15.90
2009,07,25,00,52,15.90
2009,07,25,00,53,15.90
2009,07,25,00,54,15.90
2009,07,25,00,55,16.00
2009,07,25,00,56,16.10
2009,07,25,00,57,16.10
2009,07,25,00,58,16.10
2009,07,25,00,59,16.10
2009,07,25,01,00,16.10
2009,07,25,01,01,16.10
2009,07,25,01,02,16.10
2009,07,25,01,03,16.10
2009,07,25,01,04,16.10
2009,07,25,01,05,16.20
2009,07,25,01,06,16.20
2009,07,25,01,07,16.20
2009,07,25,01,08,16.20
2009,07,25,01,09,16.30
2009,07,25,01,10,16.30
2009,07,25,01,11,16.40
2009,07,25,01,12,16.50
2009,07,25,01,13,16.60
2009,07,25,01,14,16.70
2009,07,25,01,15,16.70
2009,07,25,01,16,16.80
2009,07,25,01,17,16.80
2009,07,25,01,18,16.90
2009,07,25,01,19,17.00
2009,07,25,01,20,17.00
2009,07,25,01,21,17.10
2009,07,25,01,22,17.10
2009,07,25,01,23,17.30
2009,07,25,01,24,17.30
2009,07,25,01,25,17.20
2009,07,25,01,26,17.20
2009,07,25,01,27,17.20
2009,07,25,01,28,17.10
2009,07,25,01,29,17.00
2009,07,25,01,30,17.00
2009,07,25,01,31,16.90
2009,07,25,01,32,16.80
2009,07,25,01,33,16.70
2009,07,25,01,34,16.70
2009,07,25,01,35,16.60
2009,07,25,01,36,16.50
2009,07,25,01,37,16.40
2009,07,25,01,38,16.40
2009,07,25,01,39,16.30
2009,07,25,01,40,16.30
2009,07,25,01,41,16.20
2009,07,25,01,42,16.20
2009,07,25,01,43,16.20
2009,07,25,01,44,16.20
2009,07,25,01,45,16.20
2009,07,25,01,46,16.20
2009,07,25,01,47,16.20
2009,07,25,01,48,16.20
2009,07,25,01,49,16.20
2009,07,25,01,50,16.10
2009,07,25,01,51,16.10
2009,07,25,01,52,16.00
2009,07,25,01,53,15.80
2009,07,25,01,54,15.80
2009,07,25,01,55,15.70
2009,07,25,01,56,15.60
2009,07,25,01,57,15.60
2009,07,25,01,58,15.50
2009,07,25,01,59,15.40
2009,07,25,02,00,15.30
2009,07,25,02,01,15.30
2009,07,25,02,02,15.10
2009,07,25,02,03,15.00
2009,07,25,02,04,14.90
2009,07,25,02,05,14.80
2009,07,25,02,06,14.50
2009,07,25,02,07,14.20
2009,07,25,02,08,14.00
2009,07,25,02,09,13.90
2009,07,25,02,10,13.80
2009,07,25,02,11,13.70
2009,07,25,02,12,13.70
2009,07,25,02,13,13.70
2009,07,25,02,14,13.60
2009,07,25,02,15,13.60
2009,07,25,02,16,13.50
2009,07,25,02,17,13.40
2009,07,25,02,18,13.20
2009,07,25,02,19,13.10
2009,07,25,02,20,13.00
2009,07,25,02,21,12.80
2009,07,25,02,22,12.70
2009,07,25,02,23,12.60
2009,07,25,02,24,12.50
2009,07,25,02,25,12.50
2009,07,25,02,26,12.40
2009,07,25,02,27,12.40
2009,07,25,02,28,12.40
2009,07,25,02,29,12.40
2009,07,25,02,30,12.40
2009,07,25,02,31,12.40
2009,07,25,02,32,12.40
2009,07,25,02,33,12.40
2009,07,25,02,34,12.40
2009,07,25,02,35,12.40
2009,07,25,02,36,12.40
2009,07,25,02,37,12.50
2009,07,25,02,38,12.50
2009,07,25,02,39,12.40
2009,07,25,02,40,12.50
2009,07,25,02,41,12.50
2009,07,25,02,42,12.50
2009,07,25,02,43,12.50
2009,07,25,02,44,12.40
2009,07,25,02,45,12.40
2009,07,25,02,46,12.40
2009,07,25,02,47,12.40
2009,07,25,02,48,12.40
2009,07,25,02,49,12.40
2009,07,25,02,50,12.40
2009,07,25,02,51,12.30
2009,07,25,02,52,12.40
2009,07,25,02,53,12.40
2009,07,25,02,54,12.40
2009,07,25,02,55,12.40
2009,07,25,02,56,12.40
2009,07,25,02,57,12.50
2009,07,25,02,58,12.50
2009,07,25,02,59,12.50
2009,07,25,03,00,12.50
2009,07,25,03,01,12.60
2009,07,25,03,02,12.60
2009,07,25,03,03,12.60
2009,07,25,03,04,12.60
2009,07,25,03,05,12.70
2009,07,25,03,06,12.70
2009,07,25,03,07,12.70
2009,07,25,03,08,12.70
2009,07,25,03,09,12.80
2009,07,25,03,10,12.80
2009,07,25,03,11,12.80
2009,07,25,03,12,12.80
2009,07,25,03,13,12.80
2009,07,25,03,14,12.80
2009,07,25,03,15,12.80
2009,07,25,03,16,12.80
2009,07,25,03,17,12.80
2009,07,25,03,18,12.80
2009,07,25,03,19,12.80
2009,07,25,03,20,12.80
2009,07,25,03,21,12.80
2009,07,25,03,22,12.80
2009,07,25,03,23,12.80
2009,07,25,03,24,12.80
2009,07,25,03,25,12.80
2009,07,25,03,26,12.80
2009,07,25,03,27,12.80
2009,07,25,03,28,12.80
2009,07,25,03,29,12.80
2009,07,25,03,30,12.80
2009,07,25,03,31,12.80
2009,07,25,03,32,12.80
2009,07,25,03,33,12.80
2009,07,25,03,34,12.80
2009,07,25,03,35,12.80
2009,07,25,03,36,12.80
2009,07,25,03,37,12.80
2009,07,25,03,38,12.80
2009,07,25,03,39,12.80
2009,07,25,03,40,12.80
2009,07,25,03,41,12.80
2009,07,25,03,42,12.80
2009,07,25,03,43,12.80
2009,07,25,03,44,12.80
2009,07,25,03,45,12.80
2009,07,25,03,46,12.80
2009,07,25,03,47,12.80
2009,07,25,03,48,12.80
2009,07,25,03,49,12.80
2009,07,25,03,50,12.80
2009,07,25,03,51,12.80
2009,07,25,03,52,12.80
2009,07,25,03,53,12.80
2009,07,25,03,54,12.80
2009,07,25,03,55,12.80
2009,07,25,03,56,12.90
2009,07,25,03,57,12.90
2009,07,25,03,58,12.90
2009,07,25,03,59,13.00
2009,07,25,04,00,13.10
2009,07,25,04,01,13.10
2009,07,25,04,02,13.20
2009,07,25,04,03,13.20
2009,07,25,04,04,13.30
2009,07,25,04,05,13.30
2009,07,25,04,06,13.40
2009,07,25,04,07,13.50
2009,07,25,04,08,13.50
2009,07,25,04,09,13.60
2009,07,25,04,10,13.60
2009,07,25,04,11,13.70
2009,07,25,04,12,13.70
2009,07,25,04,13,13.80
2009,07,25,04,14,13.90
2009,07,25,04,15,13.90
2009,07,25,04,16,14.00
2009,07,25,04,17,14.00
2009,07,25,04,18,14.00
2009,07,25,04,19,14.10
2009,07,25,04,20,14.10
2009,07,25,04,21,14.10
2009,07,25,04,22,14.20
2009,07,25,04,23,14.20
2009,07,25,04,24,14.20
2009,07,25,04,25,14.10
2009,07,25,04,26,14.10
2009,07,25,04,27,14.10
2009,07,25,04,28,14.10
2009,07,25,04,29,14.10
2009,07,25,04,30,14.10
2009,07,25,04,31,14.00
2009,07,25,04,32,14.00
2009,07,25,04,33,14.10
2009,07,25,04,34,14.10
2009,07,25,04,35,14.10
2009,07,25,04,36,14.10
2009,07,25,04,37,14.10
2009,07,25,04,38,14.10
2009,07,25,04,39,14.10
2009,07,25,04,40,14.10
2009,07,25,04,41,14.10
2009,07,25,04,42,14.10
2009,07,25,04,43,14.10
2009,07,25,04,44,14.10
2009,07,25,04,45,14.10
2009,07,25,04,46,14.10
2009,07,25,04,47,14.10
2009,07,25,04,48,14.00
2009,07,25,04,49,14.00
2009,07,25,04,50,14.00
2009,07,25,04,51,14.00
2009,07,25,04,52,14.00
2009,07,25,04,53,14.00
2009,07,25,04,54,14.00
2009,07,25,04,55,14.00
2009,07,25,04,56,14.00
2009,07,25,04,57,14.00
2009,07,25,04,58,14.10
2009,07,25,04,59,14.10
2009,07,25,05,00,14.10
2009,07,25,05,01,14.10
2009,07,25,05,02,14.10
2009,07,25,05,03,14.20
2009,07,25,05,04,14.20
2009,07,25,05,05,14.20
2009,07,25,05,06,14.20
2009,07,25,05,07,14.20
2009,07,25,05,08,14.20
2009,07,25,05,09,14.20
2009,07,25,05,10,14.20
2009,07,25,05,11,14.20
2009,07,25,05,12,14.20
2009,07,25,05,13,14.20
2009,07,25,05,14,14.30
2009,07,25,05,15,14.30
2009,07,25,05,16,14.30
2009,07,25,05,17,14.40
2009,07,25,05,18,14.40
2009,07,25,05,19,14.40
2009,07,25,05,20,14.40
2009,07,25,05,21,14.40
2009,07,25,05,22,14.40
2009,07,25,05,23,14.40
2009,07,25,05,24,14.50
2009,07,25,05,25,14.50
2009,07,25,05,26,14.50
2009,07,25,05,27,14.50
2009,07,25,05,28,14.50
2009,07,25,05,29,14.50
2009,07,25,05,30,14.50
2009,07,25,05,31,14.50
2009,07,25,05,32,14.50
2009,07,25,05,33,14.50
2009,07,25,05,34,14.50
2009,07,25,05,35,14.50
2009,07,25,05,36,14.50
2009,07,25,05,37,14.50
2009,07,25,05,38,14.50
2009,07,25,05,39,14.50
2009,07,25,05,40,14.50
2009,07,25,05,41,14.60
2009,07,25,05,42,14.60
2009,07,25,05,43,14.60
2009,07,25,05,44,14.60
2009,07,25,05,45,14.60
2009,07,25,05,46,14.60
2009,07,25,05,47,14.60
2009,07,25,05,48,14.60
2009,07,25,05,49,14.70
2009,07,25,05,50,14.70
2009,07,25,05,51,14.70
2009,07,25,05,52,14.70
2009,07,25,05,53,14.70
2009,07,25,05,54,14.70
2009,07,25,05,55,14.80
2009,07,25,05,56,14.80
2009,07,25,05,57,14.80
2009,07,25,05,58,14.80
2009,07,25,05,59,14.80
2009,07,25,06,00,14.80
2009,07,25,06,01,14.80
2009,07,25,06,02,14.80
2009,07,25,06,03,14.80
2009,07,25,06,04,14.80
2009,07,25,06,05,14.80
2009,07,25,06,06,14.80
2009,07,25,06,07,14.90
2009,07,25,06,08,14.90
2009,07,25,06,09,14.90
2009,07,25,06,10,14.90
2009,07,25,06,11,14.90
2009,07,25,06,12,14.90
2009,07,25,06,13,14.90
2009,07,25,06,14,14.90
2009,07,25,06,15,14.90
2009,07,25,06,16,15.00
2009,07,25,06,17,15.00
2009,07,25,06,18,15.00
2009,07,25,06,19,15.00
2009,07,25,06,20,15.00
2009,07,25,06,21,15.00
2009,07,25,06,22,15.00
2009,07,25,06,23,15.00
2009,07,25,06,24,15.00
2009,07,25,06,25,15.00
2009,07,25,06,26,15.00
2009,07,25,06,27,15.00
2009,07,25,06,28,15.00
2009,07,25,06,29,15.00
2009,07,25,06,30,15.10
2009,07,25,06,31,15.10
2009,07,25,06,32,15.10
2009,07,25,06,33,15.10
2009,07,25,06,34,15.10
2009,07,25,06,35,15.10
2009,07,25,06,36,15.10
2009,07,25,06,37,15.10
2009,07,25,06,38,15.10
2009,07,25,06,39,15.10
2009,07,25,06,40,15.10
2009,07,25,06,41,15.10
2009,07,25,06,42,15.10
2009,07,25,06,43,15.20
2009,07,25,06,44,15.20
2009,07,25,06,45,15.20
2009,07,25,06,46,15.20
2009,07,25,06,47,15.20
2009,07,25,06,48,15.30
2009,07,25,06,49,15.30
2009,07,25,06,50,15.30
2009,07,25,06,51,15.30
2009,07,25,06,52,15.30
2009,07,25,06,53,15.30
2009,07,25,06,54,15.40
2009,07,25,06,55,15.40
2009,07,25,06,56,15.50
2009,07,25,06,57,15.50
2009,07,25,06,58,15.50
2009,07,25,06,59,15.60
2009,07,25,07,00,15.60
2009,07,25,07,01,15.70
2009,07,25,07,02,15.70
2009,07,25,07,03,15.80
2009,07,25,07,04,15.80
2009,07,25,07,05,15.80
2009,07,25,07,06,15.80
2009,07,25,07,07,15.90
2009,07,25,07,08,15.90
2009,07,25,07,09,15.90
2009,07,25,07,10,16.00
2009,07,25,07,11,16.10
2009,07,25,07,12,16.10
2009,07,25,07,13,16.10
2009,07,25,07,14,16.20
2009,07,25,07,15,16.20
2009,07,25,07,16,16.20
2009,07,25,07,17,16.30
2009,07,25,07,18,16.30
2009,07,25,07,19,16.30
2009,07,25,07,20,16.40
2009,07,25,07,21,16.40
2009,07,25,07,22,16.40
2009,07,25,07,23,16.40
2009,07,25,07,24,16.40
2009,07,25,07,25,16.50
2009,07,25,07,26,16.60
2009,07,25,07,27,16.60
2009,07,25,07,28,16.70
2009,07,25,07,29,16.70
2009,07,25,07,30,16.80
2009,07,25,07,31,16.90
2009,07,25,07,32,17.00
2009,07,25,07,33,17.20
2009,07,25,07,34,17.30
2009,07,25,07,35,17.40
2009,07,25,07,36,17.40
2009,07,25,07,37,17.50
2009,07,25,07,38,17.50
2009,07,25,07,39,17.50
2009,07,25,07,40,17.60
2009,07,25,07,41,17.60
2009,07,25,07,42,17.60
2009,07,25,07,43,17.50
2009,07,25,07,44,17.40
2009,07,25,07,45,17.20
2009,07,25,07,46,17.00
2009,07,25,07,47,16.80
2009,07,25,07,48,16.60
2009,07,25,07,49,16.50
2009,07,25,07,50,16.40
2009,07,25,07,51,16.30
2009,07,25,07,52,16.20
2009,07,25,07,53,16.00
2009,07,25,07,54,15.90
2009,07,25,07,55,15.80
2009,07,25,07,56,15.70
2009,07,25,07,57,15.60
2009,07,25,07,58,15.60
2009,07,25,07,59,15.60
2009,07,25,08,00,15.50
2009,07,25,08,01,15.50
2009,07,25,08,02,15.50
2009,07,25,08,03,15.50
2009,07,25,08,04,15.50
2009,07,25,08,05,15.60
2009,07,25,08,06,15.60
2009,07,25,08,07,15.60
2009,07,25,08,08,15.60
2009,07,25,08,09,15.60
2009,07,25,08,10,15.60
2009,07,25,08,11,15.70
2009,07,25,08,12,15.80
2009,07,25,08,13,15.80
2009,07,25,08,14,15.80
2009,07,25,08,15,15.80
2009,07,25,08,16,15.90
2009,07,25,08,17,15.90
2009,07,25,08,18,15.90
2009,07,25,08,19,15.90
2009,07,25,08,20,16.00
2009,07,25,08,21,16.10
2009,07,25,08,22,16.10
2009,07,25,08,23,16.10
2009,07,25,08,24,16.10
2009,07,25,08,25,16.10
2009,07,25,08,26,16.10
2009,07,25,08,27,16.20
2009,07,25,08,28,16.20
2009,07,25,08,29,16.20
2009,07,25,08,30,16.30
2009,07,25,08,31,16.30
2009,07,25,08,32,16.40
2009,07,25,08,33,16.40
2009,07,25,08,34,16.40
2009,07,25,08,35,16.60
2009,07,25,08,36,16.60
2009,07,25,08,37,16.70
2009,07,25,08,38,16.70
2009,07,25,08,39,16.80
2009,07,25,08,40,16.80
2009,07,25,08,41,16.90
2009,07,25,08,42,17.00
2009,07,25,08,43,17.20
2009,07,25,08,44,17.30
2009,07,25,08,45,17.40
2009,07,25,08,46,17.50
2009,07,25,08,47,17.50
2009,07,25,08,48,17.60
2009,07,25,08,49,17.60
2009,07,25,08,50,17.70
2009,07,25,08,51,17.80
2009,07,25,08,52,17.90
2009,07,25,08,53,18.00
2009,07,25,08,54,18.20
2009,07,25,08,55,18.30
2009,07,25,08,56,18.40
2009,07,25,08,57,18.50
2009,07,25,08,58,18.60
2009,07,25,08,59,18.60
2009,07,25,09,00,18.60
2009,07,25,09,01,18.50
2009,07,25,09,02,18.50
2009,07,25,09,03,18.40
2009,07,25,09,04,18.40
2009,07,25,09,05,18.40
2009,07,25,09,06,18.20
2009,07,25,09,07,18.10
2009,07,25,09,08,18.00
2009,07,25,09,09,17.90
2009,07,25,09,10,17.80
2009,07,25,09,11,17.70
2009,07,25,09,12,17.50
2009,07,25,09,13,17.50
2009,07,25,09,14,17.40
2009,07,25,09,15,17.30
2009,07,25,09,16,17.30
2009,07,25,09,17,17.20
2009,07,25,09,18,17.20
2009,07,25,09,19,17.10
2009,07,25,09,20,17.20
2009,07,25,09,21,17.20
2009,07,25,09,22,17.30
2009,07,25,09,23,17.30
2009,07,25,09,24,17.30
2009,07,25,09,25,17.30
2009,07,25,09,26,17.30
2009,07,25,09,27,17.30
2009,07,25,09,28,17.30
2009,07,25,09,29,17.30
2009,07,25,09,30,17.30
2009,07,25,09,31,17.30
2009,07,25,09,32,17.30
2009,07,25,09,33,17.30
2009,07,25,09,34,17.40
2009,07,25,09,35,17.40
2009,07,25,09,36,17.40
2009,07,25,09,37,17.50
2009,07,25,09,38,17.50
2009,07,25,09,39,17.50
2009,07,25,09,40,17.50
2009,07,25,09,41,17.50
2009,07,25,09,42,17.50
2009,07,25,09,43,17.40
2009,07,25,09,44,17.30
2009,07,25,09,45,17.30
2009,07,25,09,46,17.30
2009,07,25,09,47,17.30
2009,07,25,09,48,17.20
2009,07,25,09,49,17.10
2009,07,25,09,50,17.00
2009,07,25,09,51,17.00
2009,07,25,09,52,16.90
2009,07,25,09,53,16.90
2009,07,25,09,54,16.90
2009,07,25,09,55,17.00
2009,07,25,09,56,17.00
2009,07,25,09,57,17.10
2009,07,25,09,58,17.10
2009,07,25,09,59,17.20
2009,07,25,10,00,17.30
2009,07,25,10,01,17.30
2009,07,25,10,02,17.40
2009,07,25,10,03,17.50
2009,07,25,10,04,17.60
2009,07,25,10,05,17.70
2009,07,25,10,06,17.70
2009,07,25,10,07,17.80
2009,07,25,10,08,17.90
2009,07,25,10,09,17.90
2009,07,25,10,10,18.00
2009,07,25,10,11,18.10
2009,07,25,10,12,18.20
2009,07,25,10,13,18.30
2009,07,25,10,14,18.30
2009,07,25,10,15,18.40
2009,07,25,10,16,18.50
2009,07,25,10,17,18.60
2009,07,25,10,18,18.60
2009,07,25,10,19,18.50
2009,07,25,10,20,18.50
2009,07,25,10,21,18.40
2009,07,25,10,22,18.40
2009,07,25,10,23,18.40
2009,07,25,10,24,18.30
2009,07,25,10,25,18.30
2009,07,25,10,26,18.10
2009,07,25,10,27,17.90
2009,07,25,10,28,17.70
2009,07,25,10,29,17.70
2009,07,25,10,30,17.60
2009,07,25,10,31,17.60
2009,07,25,10,32,17.60
2009,07,25,10,33,17.60
2009,07,25,10,34,17.70
2009,07,25,10,35,17.70
2009,07,25,10,36,17.80
2009,07,25,10,37,17.80
2009,07,25,10,38,17.80
2009,07,25,10,39,17.90
2009,07,25,10,40,17.90
2009,07,25,10,41,18.00
2009,07,25,10,42,18.10
2009,07,25,10,43,18.20
2009,07,25,10,44,18.20
2009,07,25,10,45,18.20
2009,07,25,10,46,18.30
2009,07,25,10,47,18.30
2009,07,25,10,48,18.40
2009,07,25,10,49,18.40
2009,07,25,10,50,18.40
2009,07,25,10,51,18.50
2009,07,25,10,52,18.50
2009,07,25,10,53,18.50
2009,07,25,10,54,18.60
2009,07,25,10,55,18.70
2009,07,25,10,56,18.80
2009,07,25,10,57,18.80
2009,07,25,10,58,18.70
2009,07,25,10,59,18.70
2009,07,25,11,00,18.70
2009,07,25,11,01,18.70
2009,07,25,11,02,18.80
2009,07,25,11,03,18.80
2009,07,25,11,04,18.90
2009,07,25,11,05,19.00
2009,07,25,11,06,19.10
2009,07,25,11,07,19.20
2009,07,25,11,08,19.40
2009,07,25,11,09,19.50
2009,07,25,11,10,19.70
2009,07,25,11,11,19.90
2009,07,25,11,12,20.10
2009,07,25,11,13,20.30
2009,07,25,11,14,20.50
2009,07,25,11,15,20.70
2009,07,25,11,16,20.80
2009,07,25,11,17,20.90
2009,07,25,11,18,21.10
2009,07,25,11,19,21.20
2009,07,25,11,20,21.30
2009,07,25,11,21,21.30
2009,07,25,11,22,21.30
2009,07,25,11,23,21.40
2009,07,25,11,24,21.40
2009,07,25,11,25,21.40
2009,07,25,11,26,21.50
2009,07,25,11,27,21.60
2009,07,25,11,28,21.50
2009,07,25,11,29,21.20
2009,07,25,11,30,21.00
2009,07,25,11,31,20.80
2009,07,25,11,32,20.70
2009,07,25,11,33,20.60
2009,07,25,11,34,20.60
2009,07,25,11,35,20.70
2009,07,25,11,36,20.70
2009,07,25,11,37,20.80
2009,07,25,11,38,20.90
2009,07,25,11,39,20.90
2009,07,25,11,40,21.10
2009,07,25,11,41,21.20
2009,07,25,11,42,21.20
2009,07,25,11,43,21.20
2009,07,25,11,44,21.00
2009,07,25,11,45,20.80
2009,07,25,11,46,20.70
2009,07,25,11,47,20.60
2009,07,25,11,48,20.60
2009,07,25,11,49,20.60
2009,07,25,11,50,20.50
2009,07,25,11,51,20.50
2009,07,25,11,52,20.40
2009,07,25,11,53,20.40
2009,07,25,11,54,20.50
2009,07,25,11,55,20.50
2009,07,25,11,56,20.50
2009,07,25,11,57,20.60
2009,07,25,11,58,20.70
2009,07,25,11,59,20.80
2009,07,25,12,00,20.80
2009,07,25,12,01,20.90
2009,07,25,12,02,20.90
2009,07,25,12,03,20.90
2009,07,25,12,04,20.90
2009,07,25,12,05,21.00
2009,07,25,12,06,21.00
2009,07,25,12,07,21.10
2009,07,25,12,08,21.10
2009,07,25,12,09,21.20
2009,07,25,12,10,21.30
2009,07,25,12,11,21.30
2009,07,25,12,12,21.40
2009,07,25,12,13,21.40
2009,07,25,12,14,21.40
2009,07,25,12,15,21.40
2009,07,25,12,16,21.60
2009,07,25,12,17,21.60
2009,07,25,12,18,21.70
2009,07,25,12,19,21.70
2009,07,25,12,20,21.70
2009,07,25,12,21,21.80
2009,07,25,12,22,22.00
2009,07,25,12,23,22.10
2009,07,25,12,24,22.30
2009,07,25,12,25,22.20
2009,07,25,12,26,22.30
2009,07,25,12,27,22.40
2009,07,25,12,28,22.50
2009,07,25,12,29,22.60
2009,07,25,12,30,22.60
2009,07,25,12,31,22.70
2009,07,25,12,32,22.70
2009,07,25,12,33,22.80
2009,07,25,12,34,22.90
2009,07,25,12,35,23.00
2009,07,25,12,36,23.20
2009,07,25,12,37,23.30
2009,07,25,12,38,23.40
2009,07,25,12,39,23.60
2009,07,25,12,40,23.70
2009,07,25,12,41,23.50
2009,07,25,12,42,23.20
2009,07,25,12,43,22.80
2009,07,25,12,44,22.50
2009,07,25,12,45,22.20
2009,07,25,12,46,22.00
2009,07,25,12,47,21.90
2009,07,25,12,48,21.80
2009,07,25,12,49,21.70
2009,07,25,12,50,21.70
2009,07,25,12,51,21.70
2009,07,25,12,52,21.70
2009,07,25,12,53,21.70
2009,07,25,12,54,21.60
2009,07,25,12,55,21.40
2009,07,25,12,56,21.20
2009,07,25,12,57,21.10
2009,07,25,12,58,21.10
2009,07,25,12,59,21.10
2009,07,25,13,00,21.10
2009,07,25,13,01,21.00
2009,07,25,13,02,21.00
2009,07,25,13,03,21.00
2009,07,25,13,04,21.00
2009,07,25,13,05,21.10
2009,07,25,13,06,21.20
2009,07,25,13,07,21.30
2009,07,25,13,08,21.40
2009,07,25,13,09,21.60
2009,07,25,13,10,21.60
2009,07,25,13,11,21.70
2009,07,25,13,12,21.70
2009,07,25,13,13,21.80
2009,07,25,13,14,21.90
2009,07,25,13,15,22.00
2009,07,25,13,16,22.10
2009,07,25,13,17,22.30
2009,07,25,13,18,22.30
2009,07,25,13,19,22.30
2009,07,25,13,20,22.30
2009,07,25,13,21,22.30
2009,07,25,13,22,22.40
2009,07,25,13,23,22.40
2009,07,25,13,24,22.30
2009,07,25,13,25,22.10
2009,07,25,13,26,22.00
2009,07,25,13,27,21.90
2009,07,25,13,28,21.70
2009,07,25,13,29,21.60
2009,07,25,13,30,21.40
2009,07,25,13,31,21.50
2009,07,25,13,32,21.40
2009,07,25,13,33,21.30
2009,07,25,13,34,21.40
2009,07,25,13,35,21.50
2009,07,25,13,36,21.60
2009,07,25,13,37,21.60
2009,07,25,13,38,21.70
2009,07,25,13,39,21.70
2009,07,25,13,40,21.60
2009,07,25,13,41,21.60
2009,07,25,13,42,21.60
2009,07,25,13,43,21.60
2009,07,25,13,44,21.40
2009,07,25,13,45,21.40
2009,07,25,13,46,21.30
2009,07,25,13,47,21.30
2009,07,25,13,48,21.30
2009,07,25,13,49,21.20
2009,07,25,13,50,21.10
2009,07,25,13,51,21.10
2009,07,25,13,52,21.10
2009,07,25,13,53,21.00
2009,07,25,13,54,20.80
2009,07,25,13,55,20.80
2009,07,25,13,56,20.80
2009,07,25,13,57,20.80
2009,07,25,13,58,20.90
2009,07,25,13,59,20.90
2009,07,25,14,00,20.90
2009,07,25,14,01,20.80
2009,07,25,14,02,20.80
2009,07,25,14,03,20.90
2009,07,25,14,04,21.00
2009,07,25,14,05,21.00
2009,07,25,14,06,21.00
2009,07,25,14,07,20.90
2009,07,25,14,08,20.80
2009,07,25,14,09,20.80
2009,07,25,14,10,20.80
2009,07,25,14,11,20.90
2009,07,25,14,12,21.00
2009,07,25,14,13,21.20
2009,07,25,14,14,21.40
2009,07,25,14,15,21.50
2009,07,25,14,16,21.70
2009,07,25,14,17,21.70
2009,07,25,14,18,21.60
2009,07,25,14,19,21.70
2009,07,25,14,20,21.90
2009,07,25,14,21,22.20
2009,07,25,14,22,22.30
2009,07,25,14,23,22.30
2009,07,25,14,24,22.30
2009,07,25,14,25,22.20
2009,07,25,14,26,22.20
2009,07,25,14,27,22.10
2009,07,25,14,28,22.10
2009,07,25,14,29,22.10
2009,07,25,14,30,22.20
2009,07,25,14,31,22.30
2009,07,25,14,32,22.30
2009,07,25,14,33,22.40
2009,07,25,14,34,22.30
2009,07,25,14,35,22.30
2009,07,25,14,36,22.40
2009,07,25,14,37,22.40
2009,07,25,14,38,22.30
2009,07,25,14,39,22.30
2009,07,25,14,40,22.30
2009,07,25,14,41,22.30
2009,07,25,14,42,22.40
2009,07,25,14,43,22.40
2009,07,25,14,44,22.50
2009,07,25,14,45,22.50
2009,07,25,14,46,22.50
2009,07,25,14,47,22.60
2009,07,25,14,48,22.50
2009,07,25,14,49,22.40
2009,07,25,14,50,22.40
2009,07,25,14,51,22.30
2009,07,25,14,52,22.40
2009,07,25,14,53,22.40
2009,07,25,14,54,22.40
2009,07,25,14,55,22.40
2009,07,25,14,56,22.40
2009,07,25,14,57,22.40
2009,07,25,14,58,22.50
2009,07,25,14,59,22.50
2009,07,25,15,00,22.60
2009,07,25,15,01,22.60
2009,07,25,15,02,22.60
2009,07,25,15,03,22.60
2009,07,25,15,04,22.30
2009,07,25,15,05,22.30
2009,07,25,15,06,22.30
2009,07,25,15,07,22.30
2009,07,25,15,08,22.40
2009,07,25,15,09,22.40
2009,07,25,15,10,22.30
2009,07,25,15,11,22.20
2009,07,25,15,12,22.10
2009,07,25,15,13,22.20
2009,07,25,15,14,22.30
2009,07,25,15,15,22.30
2009,07,25,15,16,22.20
2009,07,25,15,17,22.20
2009,07,25,15,18,22.00
2009,07,25,15,19,21.80
2009,07,25,15,20,21.90
2009,07,25,15,21,21.90
2009,07,25,15,22,22.10
2009,07,25,15,23,22.20
2009,07,25,15,24,22.20
2009,07,25,15,25,22.20
2009,07,25,15,26,22.20
2009,07,25,15,27,22.20
2009,07,25,15,28,22.20
2009,07,25,15,29,22.30
2009,07,25,15,30,22.20
2009,07,25,15,31,22.00
2009,07,25,15,32,22.00
2009,07,25,15,33,21.90
2009,07,25,15,34,21.90
2009,07,25,15,35,21.80
2009,07,25,15,36,21.70
2009,07,25,15,37,21.80
2009,07,25,15,38,21.90
2009,07,25,15,39,22.00
2009,07,25,15,40,22.10
2009,07,25,15,41,22.20
2009,07,25,15,42,22.30
2009,07,25,15,43,22.30
2009,07,25,15,44,22.30
2009,07,25,15,45,22.30
2009,07,25,15,46,22.30
2009,07,25,15,47,22.30
2009,07,25,15,48,22.30
2009,07,25,15,49,22.30
2009,07,25,15,50,22.40
2009,07,25,15,51,22.40
2009,07,25,15,52,22.40
2009,07,25,15,53,22.40
2009,07,25,15,54,22.40
2009,07,25,15,55,22.40
2009,07,25,15,56,22.40
2009,07,25,15,57,22.50
2009,07,25,15,58,22.30
2009,07,25,15,59,22.20
2009,07,25,16,00,22.00
2009,07,25,16,01,21.80
2009,07,25,16,02,21.60
2009,07,25,16,03,21.40
2009,07,25,16,04,21.10
2009,07,25,16,05,20.80
2009,07,25,16,06,20.80
2009,07,25,16,07,20.70
2009,07,25,16,08,20.70
2009,07,25,16,09,20.70
2009,07,25,16,10,20.60
2009,07,25,16,11,20.50
2009,07,25,16,12,20.40
2009,07,25,16,13,20.30
2009,07,25,16,14,20.20
2009,07,25,16,15,20.10
2009,07,25,16,16,20.10
2009,07,25,16,17,20.10
2009,07,25,16,18,20.10
2009,07,25,16,19,20.10
2009,07,25,16,20,20.20
2009,07,25,16,21,20.20
2009,07,25,16,22,20.20
2009,07,25,16,23,20.30
2009,07,25,16,24,20.40
2009,07,25,16,25,20.40
2009,07,25,16,26,20.40
2009,07,25,16,27,20.50
2009,07,25,16,28,20.50
2009,07,25,16,29,20.40
2009,07,25,16,30,20.50
2009,07,25,16,31,20.40
2009,07,25,16,32,20.40
2009,07,25,16,33,20.40
2009,07,25,16,34,20.40
2009,07,25,16,35,20.40
2009,07,25,16,36,20.40
2009,07,25,16,37,20.50
2009,07,25,16,38,20.50
2009,07,25,16,39,20.50
2009,07,25,16,40,20.50
2009,07,25,16,41,20.60
2009,07,25,16,42,20.60
2009,07,25,16,43,20.70
2009,07,25,16,44,20.60
2009,07,25,16,45,20.50
2009,07,25,16,46,20.40
2009,07,25,16,47,20.30
2009,07,25,16,48,20.30
2009,07,25,16,49,20.30
2009,07,25,16,50,20.30
2009,07,25,16,51,20.30
2009,07,25,16,52,20.20
2009,07,25,16,53,20.20
2009,07,25,16,54,20.10
2009,07,25,16,55,20.10
2009,07,25,16,56,20.10
2009,07,25,16,57,20.10
2009,07,25,16,58,20.10
2009,07,25,16,59,20.10
2009,07,25,17,00,20.10
2009,07,25,17,01,20.10
2009,07,25,17,02,20.00
2009,07,25,17,03,19.90
2009,07,25,17,04,19.90
2009,07,25,17,05,19.80
2009,07,25,17,06,19.80
2009,07,25,17,07,19.80
2009,07,25,17,08,19.80
2009,07,25,17,09,19.80
2009,07,25,17,10,19.80
2009,07,25,17,11,19.80
2009,07,25,17,12,19.80
2009,07,25,17,13,19.80
2009,07,25,17,14,19.90
2009,07,25,17,15,19.90
2009,07,25,17,16,19.90
2009,07,25,17,17,19.90
2009,07,25,17,18,19.90
2009,07,25,17,19,19.90